Time,TemperatureF,DewpointF,PressureIn,WindDirection,WindDirectionDegrees,WindSpeedMPH,WindSpeedGustMPH,Humidity,HourlyPrecipIn,Conditions,Clouds,dailyrainin,SoftwareType,DateUTC
2013-01-29 00:02:00,64.0,58.0,29.56,SSW,213,11.0,20.0,81,0.00,,,0.01,,2013-01-29 06:02:00,
2013-01-29 00:11:00,64.0,58.0,29.56,SSW,213,11.0,20.0,81,0.00,,,0.01,,2013-01-29 06:11:00,
2013-01-29 00:21:00,64.0,58.0,29.56,SSW,195,6.0,19.0,82,0.00,,,0.01,,2013-01-29 06:21:00,
2013-01-29 00:32:00,64.0,58.0,29.56,South,178,10.0,18.0,82,0.00,,,0.01,,2013-01-29 06:32:00,
2013-01-29 00:42:00,64.0,58.0,29.56,South,178,10.0,18.0,82,0.00,,,0.01,,2013-01-29 06:42:00,
2013-01-29 00:52:00,64.0,58.0,29.55,South,174,7.0,22.0,82,0.00,,,0.01,,2013-01-29 06:52:00,
2013-01-29 01:01:00,63.0,57.0,29.55,SW,218,10.0,27.0,82,0.00,,,0.01,,2013-01-29 07:01:00,
2013-01-29 01:11:00,63.0,57.0,29.55,SW,218,10.0,27.0,82,0.00,,,0.01,,2013-01-29 07:11:00,
2013-01-29 01:21:00,63.0,58.0,29.54,South,181,10.0,18.0,83,0.00,,,0.01,,2013-01-29 07:21:00,
2013-01-29 01:31:00,63.0,57.0,29.54,WSW,238,7.0,21.0,82,0.00,,,0.01,,2013-01-29 07:31:00,
2013-01-29 01:42:00,63.0,57.0,29.54,WSW,238,7.0,21.0,82,0.00,,,0.01,,2013-01-29 07:42:00,
2013-01-29 01:52:00,62.0,56.0,29.54,SSW,211,3.0,15.0,80,0.00,,,0.01,,2013-01-29 07:52:00,
2013-01-29 02:02:00,61.0,55.0,29.58,West,279,4.0,9.0,81,0.00,,,0.01,,2013-01-29 08:02:00,
2013-01-29 02:11:00,61.0,55.0,29.58,West,279,4.0,9.0,81,0.00,,,0.01,,2013-01-29 08:11:00,
2013-01-29 02:21:00,50.0,39.0,29.61,NNW,334,9.0,17.0,65,0.00,,,0.01,,2013-01-29 08:21:00,
2013-01-29 02:31:00,42.0,36.0,29.63,NW,315,3.0,10.0,78,0.00,,,0.01,,2013-01-29 08:31:00,
2013-01-29 02:41:00,42.0,36.0,29.63,NW,315,3.0,10.0,78,0.00,,,0.01,,2013-01-29 08:41:00,
2013-01-29 02:52:00,39.0,35.0,29.62,NNW,336,7.0,16.0,84,0.00,,,0.01,,2013-01-29 08:52:00,
2013-01-29 03:01:00,39.0,35.0,29.63,WNW,296,7.0,15.0,87,0.00,,,0.01,,2013-01-29 09:01:00,
2013-01-29 03:11:00,39.0,35.0,29.63,WNW,296,7.0,15.0,87,0.00,,,0.01,,2013-01-29 09:11:00,
2013-01-29 03:21:00,38.0,35.0,29.65,WNW,303,5.0,13.0,88,0.00,,,0.01,,2013-01-29 09:21:00,
2013-01-29 03:31:00,38.0,35.0,29.65,North,355,9.0,13.0,89,0.00,,,0.01,,2013-01-29 09:31:00,
2013-01-29 03:42:00,38.0,35.0,29.65,North,355,9.0,13.0,89,0.00,,,0.01,,2013-01-29 09:42:00,
2013-01-29 03:51:00,38.0,35.0,29.63,NW,319,5.0,15.0,90,0.00,,,0.01,,2013-01-29 09:51:00,
2013-01-29 04:01:00,38.0,35.0,29.64,WNW,300,5.0,12.0,90,0.00,,,0.01,,2013-01-29 10:01:00,
2013-01-29 04:11:00,38.0,35.0,29.64,WNW,300,5.0,12.0,90,0.00,,,0.01,,2013-01-29 10:11:00,
2013-01-29 04:21:00,38.0,35.0,29.63,North,355,6.0,11.0,90,0.00,,,0.01,,2013-01-29 10:21:00,
2013-01-29 04:32:00,38.0,35.0,29.65,NNW,345,3.0,7.0,89,0.00,,,0.01,,2013-01-29 10:32:00,
2013-01-29 04:41:00,38.0,35.0,29.65,NNW,345,3.0,7.0,89,0.00,,,0.01,,2013-01-29 10:41:00,
2013-01-29 04:51:00,38.0,35.0,29.65,NE,46,2.0,7.0,90,0.00,,,0.01,,2013-01-29 10:51:00,
2013-01-29 05:01:00,38.0,35.0,29.66,NW,325,9.0,13.0,90,0.00,,,0.01,,2013-01-29 11:01:00,
2013-01-29 05:11:00,38.0,35.0,29.66,NW,325,9.0,13.0,90,0.00,,,0.01,,2013-01-29 11:11:00,
2013-01-29 05:21:00,38.0,35.0,29.65,NNW,334,7.0,11.0,89,0.00,,,0.01,,2013-01-29 11:21:00,
2013-01-29 05:32:00,38.0,35.0,29.69,NW,306,5.0,9.0,90,0.00,,,0.01,,2013-01-29 11:32:00,
2013-01-29 05:42:00,38.0,35.0,29.69,NW,306,5.0,9.0,90,0.00,,,0.01,,2013-01-29 11:42:00,
2013-01-29 05:52:00,38.0,35.0,29.66,NNW,333,2.0,10.0,89,0.00,,,0.01,,2013-01-29 11:52:00,
2013-01-29 06:02:00,38.0,35.0,29.67,NNW,330,1.0,7.0,89,0.00,,,0.01,,2013-01-29 12:02:00,
2013-01-29 06:12:00,38.0,35.0,29.67,NNW,330,1.0,7.0,89,0.00,,,0.01,,2013-01-29 12:12:00,
2013-01-29 06:22:00,38.0,35.0,29.67,North,355,5.0,11.0,89,0.00,,,0.01,,2013-01-29 12:22:00,
2013-01-29 06:32:00,38.0,35.0,29.66,NW,325,1.0,11.0,88,0.00,,,0.01,,2013-01-29 12:32:00,
2013-01-29 06:43:00,38.0,35.0,29.66,NW,325,1.0,11.0,88,0.00,,,0.01,,2013-01-29 12:43:00,
2013-01-29 06:52:00,38.0,35.0,29.65,North,5,6.0,12.0,88,0.00,,,0.01,,2013-01-29 12:52:00,
2013-01-29 07:02:00,38.0,35.0,29.65,NNW,331,5.0,13.0,88,0.00,,,0.01,,2013-01-29 13:02:00,
2013-01-29 07:12:00,38.0,35.0,29.65,NNW,331,5.0,13.0,88,0.00,,,0.01,,2013-01-29 13:12:00,
2013-01-29 07:22:00,37.0,34.0,29.64,NNE,21,1.0,12.0,87,0.00,,,0.01,,2013-01-29 13:22:00,
2013-01-29 07:32:00,37.0,34.0,29.66,WNW,296,7.0,10.0,87,0.00,,,0.01,,2013-01-29 13:32:00,
2013-01-29 07:42:00,37.0,34.0,29.66,WNW,296,7.0,10.0,87,0.00,,,0.01,,2013-01-29 13:42:00,
2013-01-29 07:52:00,37.0,34.0,29.65,NNW,341,4.0,7.0,87,0.00,,,0.01,,2013-01-29 13:52:00,
2013-01-29 08:02:00,37.0,34.0,29.65,North,5,0.0,9.0,87,0.00,,,0.00,,2013-01-29 14:02:00,
2013-01-29 08:12:00,37.0,34.0,29.64,NNW,333,3.0,7.0,87,0.00,,,0.00,,2013-01-29 14:12:00,
2013-01-29 08:22:00,37.0,34.0,29.64,NNW,333,3.0,7.0,87,0.00,,,0.00,,2013-01-29 14:22:00,
2013-01-29 08:33:00,36.0,33.0,29.63,NNE,21,5.0,8.0,87,0.00,,,0.00,,2013-01-29 14:33:00,
2013-01-29 08:43:00,36.0,33.0,29.63,NNE,21,5.0,8.0,87,0.00,,,0.00,,2013-01-29 14:43:00,
2013-01-29 08:52:00,37.0,34.0,29.63,NNW,340,4.0,10.0,87,0.00,,,0.00,,2013-01-29 14:52:00,
2013-01-29 09:02:00,37.0,34.0,29.62,NNW,341,1.0,6.0,87,0.00,,,0.00,,2013-01-29 15:02:00,
2013-01-29 09:12:00,37.0,34.0,29.62,NNW,341,1.0,6.0,87,0.00,,,0.00,,2013-01-29 15:12:00,
2013-01-29 09:22:00,37.0,34.0,29.63,North,5,0.0,0.0,87,0.00,,,0.00,,2013-01-29 15:22:00,
2013-01-29 09:33:00,37.0,33.0,29.61,NE,55,1.0,4.0,86,0.00,,,0.00,,2013-01-29 15:33:00,
2013-01-29 09:43:00,37.0,33.0,29.61,NE,55,1.0,4.0,86,0.00,,,0.00,,2013-01-29 15:43:00,
2013-01-29 09:52:00,37.0,33.0,29.61,NE,47,3.0,7.0,85,0.00,,,0.00,,2013-01-29 15:52:00,
2013-01-29 10:02:00,37.0,33.0,29.61,North,5,2.0,6.0,85,0.00,,,0.00,,2013-01-29 16:02:00,
2013-01-29 10:12:00,37.0,33.0,29.61,North,5,2.0,6.0,85,0.00,,,0.00,,2013-01-29 16:12:00,
2013-01-29 10:22:00,37.0,33.0,29.61,NNE,19,0.0,6.0,84,0.00,,,0.00,,2013-01-29 16:22:00,
2013-01-29 10:32:00,37.0,33.0,29.60,NNW,331,2.0,7.0,84,0.00,,,0.00,,2013-01-29 16:32:00,
2013-01-29 10:42:00,37.0,33.0,29.60,NNW,331,2.0,7.0,84,0.00,,,0.00,,2013-01-29 16:42:00,
2013-01-29 10:52:00,37.0,32.0,29.62,NE,43,2.0,12.0,83,0.00,,,0.00,,2013-01-29 16:52:00,
2013-01-29 11:03:00,37.0,32.0,29.63,North,10,3.0,9.0,82,0.00,,,0.00,,2013-01-29 17:03:00,
2013-01-29 11:12:00,37.0,32.0,29.63,North,10,3.0,9.0,82,0.00,,,0.00,,2013-01-29 17:12:00,
2013-01-29 11:22:00,37.0,32.0,29.65,NW,325,4.0,7.0,81,0.00,,,0.00,,2013-01-29 17:22:00,
2013-01-29 11:32:00,37.0,32.0,29.65,North,5,3.0,10.0,81,0.00,,,0.00,,2013-01-29 17:32:00,
2013-01-29 11:42:00,37.0,32.0,29.65,North,5,3.0,10.0,81,0.00,,,0.00,,2013-01-29 17:42:00,
2013-01-29 11:52:00,38.0,33.0,29.63,North,360,3.0,9.0,81,0.00,,,0.00,,2013-01-29 17:52:00,
2013-01-29 12:04:00,38.0,32.0,29.63,North,5,0.0,9.0,79,0.00,,,0.00,,2013-01-29 18:04:00,
2013-01-29 12:12:00,38.0,32.0,29.63,North,5,0.0,9.0,79,0.00,,,0.00,,2013-01-29 18:12:00,
2013-01-29 12:22:00,38.0,32.0,29.61,NNE,16,0.0,6.0,79,0.00,,,0.00,,2013-01-29 18:22:00,
2013-01-29 12:33:00,39.0,33.0,29.60,NNE,26,1.0,6.0,78,0.00,,,0.00,,2013-01-29 18:33:00,
2013-01-29 12:42:00,39.0,33.0,29.60,NNE,26,1.0,6.0,78,0.00,,,0.00,,2013-01-29 18:42:00,
2013-01-29 12:51:00,39.0,33.0,29.59,North,350,3.0,7.0,78,0.00,,,0.00,,2013-01-29 18:51:00,
2013-01-29 13:02:00,38.0,32.0,29.59,North,360,3.0,10.0,79,0.00,,,0.00,,2013-01-29 19:02:00,
2013-01-29 13:12:00,38.0,32.0,29.59,North,360,3.0,10.0,79,0.00,,,0.00,,2013-01-29 19:12:00,
2013-01-29 13:22:00,38.0,32.0,29.58,NE,34,2.0,6.0,79,0.00,,,0.00,,2013-01-29 19:22:00,
2013-01-29 13:32:00,38.0,32.0,29.58,North,350,4.0,10.0,79,0.00,,,0.00,,2013-01-29 19:32:00,
2013-01-29 13:42:00,38.0,32.0,29.58,North,350,4.0,10.0,79,0.00,,,0.00,,2013-01-29 19:42:00,
2013-01-29 13:52:00,38.0,32.0,29.55,NNW,327,2.0,14.0,78,0.00,,,0.00,,2013-01-29 19:52:00,
2013-01-29 14:02:00,39.0,33.0,29.55,NW,323,3.0,10.0,78,0.00,,,0.00,,2013-01-29 20:02:00,
2013-01-29 14:12:00,39.0,33.0,29.55,NW,323,3.0,10.0,78,0.00,,,0.00,,2013-01-29 20:12:00,
2013-01-29 14:22:00,38.0,32.0,29.52,NNE,15,3.0,11.0,78,0.00,,,0.00,,2013-01-29 20:22:00,
2013-01-29 14:33:00,38.0,32.0,29.55,North,11,3.0,10.0,79,0.00,,,0.00,,2013-01-29 20:33:00,
2013-01-29 14:42:00,38.0,32.0,29.55,North,11,3.0,10.0,79,0.00,,,0.00,,2013-01-29 20:42:00,
2013-01-29 14:53:00,38.0,32.0,29.55,NNW,329,5.0,11.0,78,0.00,,,0.00,,2013-01-29 20:53:00,
2013-01-29 15:03:00,37.0,31.0,29.56,NNW,339,8.0,13.0,79,0.00,,,0.00,,2013-01-29 21:03:00,
2013-01-29 15:12:00,37.0,31.0,29.56,NNW,339,8.0,13.0,79,0.00,,,0.00,,2013-01-29 21:12:00,
2013-01-29 15:22:00,37.0,31.0,29.57,North,11,4.0,13.0,79,0.00,,,0.00,,2013-01-29 21:22:00,
2013-01-29 15:33:00,37.0,31.0,29.57,NNW,345,4.0,10.0,79,0.00,,,0.00,,2013-01-29 21:33:00,
2013-01-29 15:42:00,37.0,31.0,29.57,NNW,345,4.0,10.0,79,0.00,,,0.00,,2013-01-29 21:42:00,
2013-01-29 15:52:00,37.0,31.0,29.59,North,360,3.0,12.0,79,0.00,,,0.00,,2013-01-29 21:52:00,
2013-01-29 16:02:00,38.0,32.0,29.56,NE,34,2.0,8.0,78,0.00,,,0.00,,2013-01-29 22:02:00,
2013-01-29 16:12:00,38.0,32.0,29.56,NE,34,2.0,8.0,78,0.00,,,0.00,,2013-01-29 22:12:00,
2013-01-29 16:22:00,38.0,32.0,29.55,NNW,347,5.0,11.0,78,0.00,,,0.00,,2013-01-29 22:22:00,
2013-01-29 16:33:00,37.0,31.0,29.54,WNW,290,5.0,13.0,79,0.00,,,0.00,,2013-01-29 22:33:00,
2013-01-29 16:42:00,37.0,31.0,29.54,WNW,290,5.0,13.0,79,0.00,,,0.00,,2013-01-29 22:42:00,
2013-01-29 16:52:00,37.0,31.0,29.55,North,360,1.0,9.0,80,0.00,,,0.00,,2013-01-29 22:52:00,
2013-01-29 17:02:00,37.0,31.0,29.54,North,360,4.0,7.0,79,0.00,,,0.00,,2013-01-29 23:02:00,
2013-01-29 17:12:00,37.0,31.0,29.54,North,360,4.0,7.0,79,0.00,,,0.00,,2013-01-29 23:12:00,
2013-01-29 17:22:00,37.0,31.0,29.57,North,10,1.0,7.0,79,0.00,,,0.00,,2013-01-29 23:22:00,
2013-01-29 17:33:00,37.0,31.0,29.58,NNE,15,0.0,6.0,79,0.00,,,0.00,,2013-01-29 23:33:00,
2013-01-29 17:42:00,37.0,31.0,29.58,NNE,15,0.0,6.0,79,0.00,,,0.00,,2013-01-29 23:42:00,
2013-01-29 17:52:00,37.0,31.0,29.57,NNW,329,1.0,7.0,80,0.00,,,0.00,,2013-01-29 23:52:00,
2013-01-29 18:03:00,37.0,31.0,29.57,North,351,4.0,9.0,80,0.00,,,0.00,,2013-01-30 00:03:00,
2013-01-29 18:12:00,37.0,31.0,29.57,North,351,4.0,9.0,80,0.00,,,0.00,,2013-01-30 00:12:00,
2013-01-29 18:22:00,36.0,31.0,29.57,NNE,24,0.0,6.0,82,0.00,,,0.00,,2013-01-30 00:22:00,
2013-01-29 18:32:00,36.0,31.0,29.57,NNE,26,1.0,3.0,82,0.00,,,0.00,,2013-01-30 00:32:00,
2013-01-29 18:42:00,36.0,31.0,29.57,NNE,26,1.0,3.0,82,0.00,,,0.00,,2013-01-30 00:42:00,
2013-01-29 18:52:00,36.0,31.0,29.57,NNE,15,1.0,4.0,83,0.00,,,0.00,,2013-01-30 00:52:00,
2013-01-29 19:02:00,36.0,31.0,29.56,NE,53,1.0,4.0,83,0.00,,,0.00,,2013-01-30 01:02:00,
2013-01-29 19:12:00,36.0,31.0,29.56,NE,53,1.0,4.0,83,0.00,,,0.00,,2013-01-30 01:12:00,
2013-01-29 19:22:00,36.0,32.0,29.57,NE,44,0.0,4.0,84,0.00,,,0.00,,2013-01-30 01:22:00,
2013-01-29 19:32:00,35.0,31.0,29.57,NNW,346,0.0,4.0,85,0.00,,,0.00,,2013-01-30 01:32:00,
2013-01-29 19:42:00,35.0,31.0,29.57,NNW,346,0.0,4.0,85,0.00,,,0.00,,2013-01-30 01:42:00,
2013-01-29 19:52:00,35.0,31.0,29.56,NE,34,0.0,6.0,85,0.00,,,0.00,,2013-01-30 01:52:00,
2013-01-29 20:02:00,35.0,31.0,29.59,NNW,336,4.0,6.0,86,0.00,,,0.00,,2013-01-30 02:02:00,
2013-01-29 20:12:00,35.0,31.0,29.59,NNW,336,4.0,6.0,86,0.00,,,0.00,,2013-01-30 02:12:00,
2013-01-29 20:22:00,35.0,32.0,29.57,NNW,327,3.0,11.0,87,0.00,,,0.00,,2013-01-30 02:22:00,
2013-01-29 20:33:00,35.0,32.0,29.56,NW,306,3.0,7.0,88,0.00,,,0.00,,2013-01-30 02:33:00,
2013-01-29 20:42:00,35.0,32.0,29.56,NW,306,3.0,7.0,88,0.00,,,0.00,,2013-01-30 02:42:00,
2013-01-29 20:52:00,34.0,31.0,29.56,NNW,346,5.0,13.0,88,0.00,,,0.00,,2013-01-30 02:52:00,
2013-01-29 21:03:00,34.0,31.0,29.58,North,9,0.0,7.0,88,0.00,,,0.00,,2013-01-30 03:03:00,
2013-01-29 21:12:00,34.0,31.0,29.58,North,9,0.0,7.0,88,0.00,,,0.00,,2013-01-30 03:12:00,
2013-01-29 21:22:00,34.0,31.0,29.60,NNW,346,1.0,8.0,88,0.00,,,0.00,,2013-01-30 03:22:00,
2013-01-29 21:32:00,34.0,31.0,29.61,North,351,4.0,7.0,87,0.00,,,0.00,,2013-01-30 03:32:00,
2013-01-29 21:42:00,34.0,31.0,29.61,North,351,4.0,7.0,87,0.00,,,0.00,,2013-01-30 03:42:00,
2013-01-29 21:52:00,34.0,31.0,29.62,NNW,348,3.0,6.0,88,0.00,,,0.00,,2013-01-30 03:52:00,
2013-01-29 22:02:00,34.0,31.0,29.62,NW,315,4.0,8.0,88,0.00,,,0.00,,2013-01-30 04:02:00,
2013-01-29 22:12:00,34.0,31.0,29.62,NW,315,4.0,8.0,88,0.00,,,0.00,,2013-01-30 04:12:00,
2013-01-29 22:22:00,33.0,30.0,29.62,North,5,4.0,9.0,89,0.00,,,0.00,,2013-01-30 04:22:00,
2013-01-29 22:32:00,33.0,30.0,29.62,North,349,4.0,8.0,90,0.00,,,0.00,,2013-01-30 04:32:00,
2013-01-29 22:41:00,33.0,30.0,29.62,North,349,4.0,8.0,90,0.00,,,0.00,,2013-01-30 04:41:00,
2013-01-29 22:52:00,33.0,31.0,29.62,NNW,330,5.0,10.0,91,0.00,,,0.00,,2013-01-30 04:52:00,
2013-01-29 23:03:00,33.0,31.0,29.62,NW,308,6.0,10.0,91,0.00,,,0.00,,2013-01-30 05:03:00,
2013-01-29 23:12:00,32.0,30.0,29.62,NW,319,7.0,14.0,92,0.00,,,0.00,,2013-01-30 05:12:00,
2013-01-29 23:22:00,32.0,30.0,29.62,NW,319,7.0,14.0,92,0.00,,,0.00,,2013-01-30 05:22:00,
2013-01-29 23:32:00,32.0,30.0,29.63,NW,319,5.0,16.0,92,0.00,,,0.00,,2013-01-30 05:32:00,
2013-01-29 23:43:00,32.0,30.0,29.63,NW,319,5.0,16.0,92,0.00,,,0.00,,2013-01-30 05:43:00,
2013-01-29 23:52:00,32.0,30.0,29.64,North,9,8.0,16.0,92,0.00,,,0.00,,2013-01-30 05:52:00,